M I D A S
Marine Information and Data Acquisition System
Tripno 393 of the Zeeleeuw from 2002-11-12 07:59:55 to 2002-11-12 11:26:10
Back to CruiseResearch ActivitiesStationsMapUnderway DataData graphs

EquipmentUnitsComment
TimeDGPSUTC
LatitudeDGPSDM.mWGS84
LongitudeDGPSDM.mWGS84
TemperatureSBE03/SBE38deg celciusITS90
ConductivitySBE21S/mITS90
SalinitySBE21 Practical Salinity Units
ChlorophylAChelsea fluorimeterg/lCalibrated in Aceton
Missing or incorrect values are displayed as -999
Sea surface data collected by the RV Zeeleeuw from 2002-11-12 07:59:55 to 2002-11-12 11:26:10
                                                                                    Next 1000 lines
Time Latitude Longitude Temperature Conductivity Salinity ChlorophylA
2002-11-12 08:00:03 51°13.767 2°55.698 30.078284 0.008324 0.045961  
2002-11-12 08:00:09 51°13.773 2°55.691 30.817824 0.008324 0.045961  
2002-11-12 08:00:13 51°13.777 2°55.686 30.817824 0.008324 0.045961  
2002-11-12 08:00:18 51°13.782 2°55.681 30.563656 0.008324 0.045961  
2002-11-12 08:00:23 51°13.788 2°55.675 30.45104 0.008324 0.045961  
2002-11-12 08:00:29 51°13.795 2°55.668 29.154969 0.008324 0.045961  
2002-11-12 08:00:33 51°13.799 2°55.664 28.462446 0.008324 0.045961  
2002-11-12 08:00:39 51°13.806 2°55.657 30.650257 0.008324 0.045962  
2002-11-12 08:00:43 51°13.812 2°55.653 30.650257 0.008324 0.045962  
2002-11-12 08:00:49 51°13.819 2°55.646 30.058718 0.008324 0.045962  
2002-11-12 08:00:54 51°13.826 2°55.64 29.444223 0.008324 0.045963  
2002-11-12 08:00:59 51°13.832 2°55.634 29.186612 0.008324 0.045962  
2002-11-12 08:01:03 51°13.838 2°55.63 28.550265 0.008324 0.045963  
2002-11-12 08:01:09 51°13.846 2°55.623 28.19273 0.008324 0.045963  
2002-11-12 08:01:14 51°13.853 2°55.617 28.19273 0.008324 0.045963  
2002-11-12 08:01:19 51°13.86 2°55.611 29.22416 0.008324 0.045963  
2002-11-12 08:01:23 51°13.866 2°55.607 28.344484 0.008324 0.045963  
2002-11-12 08:01:29 51°13.874 2°55.6 31.357816 0.008324 0.045964  
2002-11-12 08:01:34 51°13.882 2°55.595 30.332073 0.008324 0.045964  
2002-11-12 08:01:39 51°13.889 2°55.589 28.789662 0.008324 0.045964  
2002-11-12 08:01:43 51°13.895 2°55.585 28.789662 0.008324 0.045964  
2002-11-12 08:01:49 51°13.905 2°55.578 29.729576 0.008324 0.045964  
2002-11-12 08:01:53 51°13.911 2°55.573 29.272165 0.008324 0.045964  
2002-11-12 08:01:59 51°13.921 2°55.566 32.318907 0.008324 0.045965  
2002-11-12 08:02:03 51°13.928 2°55.561 29.19774 0.008324 0.045964  
2002-11-12 08:02:07 51°13.935 2°55.556 31.252892 0.008324 0.045965  
2002-11-12 08:02:13 51°13.945 2°55.548 31.252892 0.008324 0.045965  
2002-11-12 08:02:19 51°13.956 2°55.54 28.78708 0.008324 0.045965  
2002-11-12 08:02:23 51°13.963 2°55.535 28.706394 0.008324 0.045965  
2002-11-12 08:02:29 51°13.974 2°55.527 29.96791 0.008324 0.045965  
2002-11-12 08:02:31 51°13.978 2°55.524 29.238704 0.008324 0.045965  
2002-11-12 08:02:39 51°13.993 2°55.514 28.734065 0.008324 0.045965  
2002-11-12 08:02:43 51°14 2°55.508 28.734065 0.008324 0.045965  
2002-11-12 08:02:49 51°14.011 2°55.5 28.464174 0.008324 0.045966  
2002-11-12 08:02:53 51°14.019 2°55.494 29.708539 0.008324 0.045965  
2002-11-12 08:02:59 51°14.03 2°55.485 28.801457 0.008324 0.045966  
2002-11-12 08:03:03 51°14.038 2°55.479 29.869605 0.008324 0.045966  
2002-11-12 08:03:09 51°14.049 2°55.47 28.778151 0.008324 0.045966  
2002-11-12 08:03:13 51°14.056 2°55.464 28.778151 0.008324 0.045966  
2002-11-12 08:03:19 51°14.068 2°55.456 28.588204 0.008324 0.045966  
2002-11-12 08:03:23 51°14.076 2°55.45 26.357154 0.008324 0.045966  
2002-11-12 08:03:29 51°14.087 2°55.441 27.374876 0.008324 0.045966  
2002-11-12 08:03:34 51°14.096 2°55.433 28.502625 0.008324 0.045966  
2002-11-12 08:03:39 51°14.106 2°55.426 28.892856 0.008324 0.045967  
2002-11-12 08:03:43 51°14.114 2°55.42 28.892856 0.008324 0.045967  
2002-11-12 08:03:47 51°14.121 2°55.414 28.834934 0.008324 0.045968  
2002-11-12 08:03:54 51°14.135 2°55.404 29.253352 0.008324 0.045968  
2002-11-12 08:03:59 51°14.144 2°55.396 28.248911 0.008324 0.045968  
2002-11-12 08:04:03 51°14.152 2°55.389 28.346864 0.008324 0.045969  
2002-11-12 08:04:08 51°14.161 2°55.381 29.011497 0.008324 0.045969  
2002-11-12 08:04:13 51°14.171 2°55.372 29.011497 0.008324 0.045969  
2002-11-12 08:04:18 51°14.18 2°55.362 28.949552 0.008324 0.045969  
2002-11-12 08:04:23 51°14.189 2°55.353 29.828098 0.008324 0.045969  
2002-11-12 08:04:29 51°14.199 2°55.341 29.326868 0.008324 0.045969  
2002-11-12 08:04:34 51°14.208 2°55.331 29.825976 0.008324 0.045969  
2002-11-12 08:04:39 51°14.216 2°55.319 28.618111 0.008324 0.045969  
2002-11-12 08:04:43 51°14.223 2°55.311 28.618111 0.008324 0.045969  
2002-11-12 08:04:47 51°14.229 2°55.301 30.390263 0.008324 0.045969  
2002-11-12 08:04:53 51°14.239 2°55.287 29.917202 0.008324 0.04597  
2002-11-12 08:04:58 51°14.247 2°55.275 29.785647 0.008324 0.04597  
2002-11-12 08:05:03 51°14.254 2°55.263 28.952021 0.008324 0.04597  
2002-11-12 08:05:09 51°14.263 2°55.248 29.392914 0.008324 0.04597  
2002-11-12 08:05:14 51°14.271 2°55.235 29.392914 0.008324 0.04597  
2002-11-12 08:05:19 51°14.278 2°55.222 29.662619 0.008324 0.04597  
2002-11-12 08:05:23 51°14.283 2°55.211 29.355307 0.008324 0.04597  
2002-11-12 08:05:29 51°14.292 2°55.195 29.095392 0.008324 0.045971  
2002-11-12 08:05:34 51°14.299 2°55.182 28.734782 0.008324 0.045971  
2002-11-12 08:05:38 51°14.305 2°55.171 28.509212 0.008324 0.045971  
2002-11-12 08:05:43 51°14.312 2°55.157 28.509212 0.008324 0.045971  
2002-11-12 08:05:49 51°14.32 2°55.141 29.516453 0.008324 0.045971  
2002-11-12 08:05:54 51°14.327 2°55.127 29.341356 0.008324 0.045971  
2002-11-12 08:05:59 51°14.334 2°55.112 28.202127 0.008324 0.045971  
2002-11-12 08:06:03 51°14.34 2°55.1 29.023186 0.008324 0.045972  
2002-11-12 08:06:07 51°14.345 2°55.088 28.050917 0.008324 0.045972  
2002-11-12 08:06:14 51°14.356 2°55.065 28.050917 0.008324 0.045972  
2002-11-12 08:06:19 51°14.364 2°55.048 28.843426 0.008324 0.045972  
2002-11-12 08:06:23 51°14.37 2°55.034 28.967798 0.008324 0.045973  
2002-11-12 08:06:27 51°14.376 2°55.02 28.7205 0.008324 0.045973  
2002-11-12 08:06:33 51°14.385 2°54.999 28.246672 0.008324 0.045973  
2002-11-12 08:06:39 51°14.394 2°54.977 27.891381 0.008324 0.045974  
2002-11-12 08:06:43 51°14.4 2°54.962 27.891381 0.008324 0.045974  
2002-11-12 08:06:49 51°14.406 2°54.938 28.319447 0.008324 0.045974  
2002-11-12 08:06:54 51°14.411 2°54.917 28.059571 0.008324 0.045974  
2002-11-12 08:06:59 51°14.416 2°54.896 28.418642 0.008324 0.045974  
2002-11-12 08:07:03 51°14.418 2°54.879 27.292064 0.008324 0.045975  
2002-11-12 08:07:09 51°14.422 2°54.852 29.624898 0.008324 0.045975  
2002-11-12 08:07:14 51°14.424 2°54.829 29.624898 0.008324 0.045975  
2002-11-12 08:07:19 51°14.425 2°54.805 28.286534 0.008324 0.045975  
2002-11-12 08:07:23 51°14.425 2°54.786 29.332385 0.008324 0.045975  
2002-11-12 08:07:27 51°14.426 2°54.767 28.253209 0.008324 0.045975  
2002-11-12 08:07:33 51°14.426 2°54.738 28.757062 0.008324 0.045976  
2002-11-12 08:07:39 51°14.426 2°54.709 28.567817 0.008324 0.045976  
2002-11-12 08:07:43 51°14.426 2°54.69 28.567817 0.008324 0.045976  
2002-11-12 08:07:47 51°14.426 2°54.67 28.631981 0.008324 0.045976  
2002-11-12 08:07:53 51°14.425 2°54.641 30.278514 0.008324 0.045976  
2002-11-12 08:07:59 51°14.424 2°54.612 27.637072 0.008324 0.045977  
2002-11-12 08:08:03 51°14.423 2°54.593 28.718346 0.008324 0.045977  
2002-11-12 08:08:07 51°14.421 2°54.574 28.426857 0.008324 0.045978  
2002-11-12 08:08:13 51°14.416 2°54.546 28.426857 0.008324 0.045978  
2002-11-12 08:08:18 51°14.412 2°54.525 28.250175 0.008324 0.045978  
2002-11-12 08:08:23 51°14.406 2°54.503 28.468424 0.008324 0.045979  
2002-11-12 08:08:29 51°14.399 2°54.477 29.097499 0.008324 0.045979  
2002-11-12 08:08:34 51°14.392 2°54.456 27.414439 0.008324 0.045979  
2002-11-12 08:08:39 51°14.386 2°54.435 28.328287 0.008324 0.045979  
2002-11-12 08:08:43 51°14.381 2°54.419 28.328287 0.008324 0.045979  
2002-11-12 08:08:49 51°14.373 2°54.393 27.878352 0.008324 0.045979  
2002-11-12 08:08:54 51°14.366 2°54.373 28.671029 0.008324 0.045979  
2002-11-12 08:08:59 51°14.36 2°54.352 28.385628 0.008324 0.045979  
2002-11-12 08:09:03 51°14.354 2°54.335 27.603273 0.008324 0.04598  
2002-11-12 08:09:09 51°14.346 2°54.311 28.031252 0.008324 0.04598  
2002-11-12 08:09:14 51°14.339 2°54.29 28.031252 0.008324 0.04598  
2002-11-12 08:09:19 51°14.333 2°54.269 28.11104 0.008324 0.045981  
2002-11-12 08:09:23 51°14.327 2°54.252 27.075622 0.008324 0.045981  
2002-11-12 08:09:29 51°14.319 2°54.227 26.770219 0.008324 0.045981  
2002-11-12 08:09:33 51°14.313 2°54.21 28.088422 0.008324 0.045981  
2002-11-12 08:09:39 51°14.305 2°54.185 27.705533 0.008324 0.045981  
2002-11-12 08:09:43 51°14.3 2°54.168 27.705533 0.008324 0.045981  
2002-11-12 08:09:49 51°14.292 2°54.143 27.888659 0.008324 0.045981  
2002-11-12 08:09:54 51°14.285 2°54.122 27.998102 0.008324 0.045982  
2002-11-12 08:09:58 51°14.279 2°54.105 27.510248 0.008324 0.045982  
2002-11-12 08:10:03 51°14.272 2°54.084 27.143465 0.008324 0.045982  
2002-11-12 08:10:09 51°14.264 2°54.059 28.112849 0.008324 0.045982  
2002-11-12 08:10:13 51°14.258 2°54.043 28.112849 0.008324 0.045982  
2002-11-12 08:10:18 51°14.252 2°54.021 27.613837 0.008324 0.045983  
2002-11-12 08:10:23 51°14.245 2°54.001 26.786832 0.008324 0.045983  
2002-11-12 08:10:27 51°14.239 2°53.984 27.200699 0.008324 0.045983  
2002-11-12 08:10:34 51°14.229 2°53.954 26.437354 0.008324 0.045983  
2002-11-12 08:10:39 51°14.223 2°53.933 28.235294 0.008324 0.045983  
2002-11-12 08:10:43 51°14.217 2°53.916 28.235294 0.008324 0.045983  
2002-11-12 08:10:49 51°14.209 2°53.891 27.43854 0.008324 0.045984  
2002-11-12 08:10:53 51°14.204 2°53.874 27.879441 0.008324 0.045984  
2002-11-12 08:10:59 51°14.196 2°53.848 28.212317 0.008324 0.045984  
2002-11-12 08:11:03 51°14.19 2°53.831 27.882853 0.008324 0.045985  
2002-11-12 08:11:09 51°14.183 2°53.806 28.946547 0.008324 0.045985  
2002-11-12 08:11:13 51°14.178 2°53.789 28.946547 0.008324 0.045985  
2002-11-12 08:11:19 51°14.169 2°53.763 27.876682 0.008324 0.045986  
2002-11-12 08:11:23 51°14.164 2°53.746 28.736684 0.008324 0.045986  
2002-11-12 08:11:29 51°14.156 2°53.721 27.606115 0.008324 0.045986  
2002-11-12 08:11:33 51°14.15 2°53.704 27.429302 0.008324 0.045986  
2002-11-12 08:11:39 51°14.142 2°53.679 27.489563 0.008324 0.045987  
2002-11-12 08:11:43 51°14.137 2°53.661 27.489563 0.008324 0.045987  
2002-11-12 08:11:49 51°14.128 2°53.636 28.144826 0.008324 0.045986  
2002-11-12 08:11:53 51°14.123 2°53.619 28.208342 0.008324 0.045987  
2002-11-12 08:11:58 51°14.116 2°53.598 28.914015 0.008324 0.045987  
2002-11-12 08:12:03 51°14.109 2°53.577 28.71386 0.008324 0.045987  
2002-11-12 08:12:09 51°14.101 2°53.552 27.615731 0.008324 0.045987  
2002-11-12 08:12:14 51°14.095 2°53.531 27.615731 0.008324 0.045987  
2002-11-12 08:12:19 51°14.088 2°53.509 28.021399 0.008324 0.045988  
2002-11-12 08:12:23 51°14.082 2°53.493 27.962147 0.008324 0.045988  
2002-11-12 08:12:29 51°14.074 2°53.467 28.737509 0.008324 0.045988  
2002-11-12 08:12:34 51°14.067 2°53.446 28.29397 0.008324 0.045989  
2002-11-12 08:12:39 51°14.061 2°53.425 27.642934 0.008324 0.045989  
2002-11-12 08:12:43 51°14.055 2°53.408 27.642934 0.008324 0.045989  
2002-11-12 08:12:48 51°14.049 2°53.387 27.766807 0.008324 0.045989  
2002-11-12 08:12:53 51°14.042 2°53.366 28.690024 0.008324 0.045989  
2002-11-12 08:12:59 51°14.034 2°53.34 28.01198 0.008324 0.045989  
2002-11-12 08:13:03 51°14.03 2°53.322 27.827086 0.008324 0.045989  
2002-11-12 08:13:09 51°14.022 2°53.296 28.675517 0.008324 0.04599  
2002-11-12 08:13:14 51°14.017 2°53.275 28.675517 0.008324 0.04599  
2002-11-12 08:13:19 51°14.01 2°53.253 26.800864 0.008324 0.045991  
2002-11-12 08:13:23 51°14.005 2°53.236 27.858206 0.008324 0.045991  
2002-11-12 08:13:29 51°13.998 2°53.209 28.147466 0.008324 0.045991  
2002-11-12 08:13:34 51°13.992 2°53.188 27.015024 0.008324 0.045991  
2002-11-12 08:13:39 51°13.986 2°53.166 27.830827 0.008324 0.045991  
2002-11-12 08:13:43 51°13.981 2°53.148 27.830827 0.008324 0.045991  
2002-11-12 08:13:49 51°13.974 2°53.122 28.221061 0.008324 0.045992  
2002-11-12 08:13:53 51°13.969 2°53.104 29.411906 0.008324 0.045992  
2002-11-12 08:13:59 51°13.962 2°53.078 28.207764 0.008324 0.045993  
2002-11-12 08:14:03 51°13.957 2°53.06 28.331173 0.008324 0.045992  
2002-11-12 08:14:09 51°13.95 2°53.034 28.475013 0.008324 0.045993  
2002-11-12 08:14:14 51°13.944 2°53.012 28.475013 0.008324 0.045993  
2002-11-12 08:14:19 51°13.938 2°52.99 28.832533 0.008324 0.045993  
2002-11-12 08:14:23 51°13.933 2°52.972 26.726992 0.008324 0.045993  
2002-11-12 08:14:27 51°13.928 2°52.955 27.910212 0.008324 0.045994  
2002-11-12 08:14:34 51°13.919 2°52.925 28.293789 0.008324 0.045994  
2002-11-12 08:14:39 51°13.913 2°52.903 27.490986 0.008324 0.045994  
2002-11-12 08:14:43 51°13.908 2°52.886 27.490986 0.008324 0.045994  
2002-11-12 08:14:47 51°13.902 2°52.869 27.4331 0.008324 0.045994  
2002-11-12 08:14:53 51°13.894 2°52.843 27.740412 0.008324 0.045994  
2002-11-12 08:14:59 51°13.887 2°52.817 26.902873 0.008324 0.045995  
2002-11-12 08:15:03 51°13.881 2°52.8 27.113988 0.008324 0.045995  
2002-11-12 08:15:09 51°13.874 2°52.774 27.315143 0.008324 0.045996  
2002-11-12 08:15:14 51°13.867 2°52.752 27.315143 0.008324 0.045996  
2002-11-12 08:15:19 51°13.86 2°52.731 27.494014 0.008324 0.045996  
2002-11-12 08:15:23 51°13.855 2°52.714 26.896842 0.008324 0.045996  
2002-11-12 08:15:29 51°13.847 2°52.688 27.436349 0.008324 0.045996  
2002-11-12 08:15:34 51°13.841 2°52.666 28.649083 0.008324 0.045996  
2002-11-12 08:15:39 51°13.834 2°52.645 27.951777 0.008324 0.045997  
2002-11-12 08:15:43 51°13.829 2°52.627 27.951777 0.008324 0.045997  
2002-11-12 08:15:49 51°13.821 2°52.602 27.705969 0.008324 0.045997  
2002-11-12 08:15:54 51°13.815 2°52.58 28.065219 0.008324 0.045997  
2002-11-12 08:15:59 51°13.808 2°52.559 28.06149 0.008324 0.045998  
2002-11-12 08:16:03 51°13.803 2°52.542 27.885393 0.008324 0.045998  
2002-11-12 08:16:09 51°13.795 2°52.516 27.474019 0.008324 0.045998  
2002-11-12 08:16:14 51°13.788 2°52.494 27.474019 0.008324 0.045998  
2002-11-12 08:16:19 51°13.782 2°52.472 27.823708 0.008324 0.045998  
2002-11-12 08:16:23 51°13.776 2°52.455 27.109368 0.008324 0.045998  
2002-11-12 08:16:29 51°13.769 2°52.429 27.615403 0.008324 0.045999  
2002-11-12 08:16:34 51°13.762 2°52.408 27.559217 0.008324 0.045999  
2002-11-12 08:16:39 51°13.756 2°52.386 26.686544 0.008324 0.045999  
2002-11-12 08:16:43 51°13.75 2°52.369 26.686544 0.008324 0.045999  
2002-11-12 08:16:49 51°13.743 2°52.343 27.887462 0.008324 0.046  
2002-11-12 08:16:53 51°13.737 2°52.325 26.294406 0.008324 0.046  
2002-11-12 08:16:59 51°13.729 2°52.299 15.698591 0.008324 0.045991  
2002-11-12 08:17:03 51°13.724 2°52.282 15.964094 0.008324 0.045982  
2002-11-12 08:17:07 51°13.719 2°52.264 16.058906 0.008324 0.045979  
2002-11-12 08:17:13 51°13.711 2°52.238 16.058906 0.008324 0.045979  
2002-11-12 08:17:19 51°13.703 2°52.212 15.843332 0.008324 0.045985  
2002-11-12 08:17:23 51°13.697 2°52.195 16.101596 0.008324 0.045986  
2002-11-12 08:17:29 51°13.69 2°52.169 15.87074 0.008324 0.045986  
2002-11-12 08:17:33 51°13.684 2°52.152 16.055565 0.008324 0.045988  
2002-11-12 08:17:39 51°13.676 2°52.126 15.961649 0.008324 0.045991  
2002-11-12 08:17:43 51°13.671 2°52.108 15.961649 0.008324 0.045991  
2002-11-12 08:17:49 51°13.663 2°52.082 16.036629 0.008324 0.045994  
2002-11-12 08:17:54 51°13.656 2°52.061 15.934278 0.008324 0.045996  
2002-11-12 08:17:59 51°13.65 2°52.039 15.869537 0.008324 0.045998  
2002-11-12 08:18:03 51°13.644 2°52.022 16.009888 0.008324 0.046  
2002-11-12 08:18:09 51°13.636 2°51.996 16.084472 0.008324 0.046001  
2002-11-12 08:18:13 51°13.631 2°51.978 16.084472 0.008324 0.046001  
2002-11-12 08:18:19 51°13.623 2°51.952 15.984851 0.008324 0.046001  
2002-11-12 08:18:23 51°13.617 2°51.935 16.054365 0.008324 0.046002  
2002-11-12 08:18:29 51°13.609 2°51.909 16.129158 0.008324 0.046003  
2002-11-12 08:18:34 51°13.603 2°51.887 15.992311 0.008324 0.046003  
2002-11-12 08:18:39 51°13.596 2°51.866 16.276833 0.008324 0.046004  
2002-11-12 08:18:43 51°13.591 2°51.848 16.276833 0.008324 0.046004  
2002-11-12 08:18:49 51°13.583 2°51.822 16.103223 0.008324 0.046004  
2002-11-12 08:18:53 51°13.578 2°51.805 16.036758 0.008324 0.046004  
2002-11-12 08:18:59 51°13.569 2°51.779 16.284518 0.008324 0.046004  
2002-11-12 08:19:03 51°13.564 2°51.762 16.216134 0.008324 0.046005  
2002-11-12 08:19:08 51°13.557 2°51.74 16.149266 0.008324 0.046005  
2002-11-12 08:19:11 51°13.554 2°51.727 16.149266 0.008324 0.046005  
2002-11-12 08:19:19 51°13.543 2°51.693 16.043656 0.008324 0.046006  
2002-11-12 08:19:23 51°13.538 2°51.675 16.153415 0.008324 0.046006  
2002-11-12 08:19:29 51°13.53 2°51.65 16.051153 0.008324 0.046006  
2002-11-12 08:19:34 51°13.523 2°51.628 15.911917 0.008324 0.046006  
2002-11-12 08:19:39 51°13.516 2°51.606 15.98708 0.008324 0.046007  
2002-11-12 08:19:43 51°13.511 2°51.589 15.98708 0.008324 0.046007  
2002-11-12 08:19:49 51°13.503 2°51.563 16.198355 0.008324 0.046007  
2002-11-12 08:19:54 51°13.496 2°51.541 16.095004 0.008324 0.046007  
2002-11-12 08:19:59 51°13.49 2°51.519 15.886587 0.008324 0.046008  
2002-11-12 08:20:03 51°13.484 2°51.502 16.027716 0.008324 0.046008  
2002-11-12 08:20:09 51°13.476 2°51.476 15.889636 0.008324 0.046008  
2002-11-12 08:20:13 51°13.471 2°51.459 15.889636 0.008324 0.046008  
2002-11-12 08:20:19 51°13.463 2°51.433 16.313158 0.008324 0.046008  
2002-11-12 08:20:23 51°13.457 2°51.416 15.931317 0.008324 0.046008  
2002-11-12 08:20:29 51°13.449 2°51.39 16.14195 0.008324 0.046009  
2002-11-12 08:20:33 51°13.443 2°51.372 16.110414 0.008324 0.046009  
2002-11-12 08:20:39 51°13.435 2°51.346 16.007444 0.008324 0.046009  
2002-11-12 08:20:43 51°13.429 2°51.329 16.007444 0.008324 0.046009  
2002-11-12 08:20:48 51°13.423 2°51.308 16.254542 0.008324 0.04601  
2002-11-12 08:20:54 51°13.415 2°51.282 15.907539 0.008324 0.04601  
2002-11-12 08:20:58 51°13.41 2°51.264 16.085371 0.008324 0.046011  
2002-11-12 08:21:03 51°13.403 2°51.243 16.157521 0.008324 0.046011  
2002-11-12 08:21:07 51°13.398 2°51.226 16.124708 0.008324 0.046011  
2002-11-12 08:21:14 51°13.389 2°51.196 16.124708 0.008324 0.046011  
2002-11-12 08:21:19 51°13.382 2°51.174 16.090723 0.008324 0.046011  
2002-11-12 08:21:23 51°13.377 2°51.158 15.954057 0.008324 0.046011  
2002-11-12 08:21:27 51°13.371 2°51.141 16.061861 0.008324 0.046011  
2002-11-12 08:21:34 51°13.362 2°51.112 15.994112 0.008324 0.046012  
2002-11-12 08:21:39 51°13.356 2°51.091 16.136432 0.008324 0.046012  
2002-11-12 08:21:43 51°13.35 2°51.073 16.136432 0.008324 0.046012  
2002-11-12 08:21:49 51°13.342 2°51.048 16.068671 0.008324 0.046012  
2002-11-12 08:21:54 51°13.335 2°51.027 16.139982 0.008324 0.046012  
2002-11-12 08:21:59 51°13.328 2°51.006 16.24869 0.008324 0.046013  
2002-11-12 08:22:03 51°13.323 2°50.989 16.250698 0.008324 0.046012  
2002-11-12 08:22:09 51°13.315 2°50.963 15.970442 0.008324 0.046013  
2002-11-12 08:22:13 51°13.31 2°50.947 15.970442 0.008324 0.046013  
2002-11-12 08:22:19 51°13.302 2°50.921 16.291049 0.008324 0.046013  
2002-11-12 08:22:23 51°13.296 2°50.904 16.25719 0.008324 0.046014  
2002-11-12 08:22:29 51°13.288 2°50.879 16.364603 0.008324 0.046013  
2002-11-12 08:22:34 51°13.281 2°50.858 16.051324 0.008324 0.046014  
2002-11-12 08:22:39 51°13.275 2°50.836 16.191814 0.008324 0.046014  
2002-11-12 08:22:43 51°13.269 2°50.819 16.191814 0.008324 0.046014  
2002-11-12 08:22:47 51°13.264 2°50.802 16.054836 0.008324 0.046015  
2002-11-12 08:22:53 51°13.256 2°50.777 16.231987 0.008324 0.046015  
2002-11-12 08:22:59 51°13.248 2°50.752 16.126163 0.008324 0.046016  
2002-11-12 08:23:03 51°13.242 2°50.735 16.342852 0.008324 0.046016  
2002-11-12 08:23:09 51°13.234 2°50.709 16.204638 0.008324 0.046016  
2002-11-12 08:23:14 51°13.228 2°50.687 16.204638 0.008324 0.046016  
2002-11-12 08:23:19 51°13.221 2°50.665 16.345923 0.008324 0.046016  
2002-11-12 08:23:23 51°13.216 2°50.648 16.312944 0.008324 0.046016  
2002-11-12 08:23:29 51°13.208 2°50.622 16.243949 0.008324 0.046016  
2002-11-12 08:23:34 51°13.202 2°50.601 16.07321 0.008324 0.046016  
2002-11-12 08:23:39 51°13.195 2°50.58 16.144132 0.008324 0.046017  
2002-11-12 08:23:43 51°13.19 2°50.562 16.144132 0.008324 0.046017  
2002-11-12 08:23:49 51°13.182 2°50.537 16.218357 0.008324 0.046017  
2002-11-12 08:23:53 51°13.176 2°50.52 16.324209 0.008324 0.046017  
2002-11-12 08:23:59 51°13.168 2°50.494 16.078906 0.008324 0.046018  
2002-11-12 08:24:02 51°13.164 2°50.481 16.013917 0.008324 0.046018  
2002-11-12 08:24:07 51°13.157 2°50.459 16.190788 0.008324 0.046018  
2002-11-12 08:24:14 51°13.148 2°50.43 16.190788 0.008324 0.046018  
2002-11-12 08:24:19 51°13.141 2°50.408 16.018288 0.008324 0.046018  
2002-11-12 08:24:23 51°13.135 2°50.391 16.264749 0.008324 0.046018  
2002-11-12 08:24:29 51°13.127 2°50.365 16.233183 0.008324 0.046019  
2002-11-12 08:24:34 51°13.12 2°50.344 16.094704 0.008324 0.046019  
2002-11-12 08:24:39 51°13.114 2°50.322 15.920802 0.008324 0.046018  
2002-11-12 08:24:43 51°13.109 2°50.306 15.920802 0.008324 0.046018  
2002-11-12 08:24:49 51°13.101 2°50.28 16.236815 0.008324 0.046018  
2002-11-12 08:24:54 51°13.094 2°50.259 16.205835 0.008324 0.046018  
2002-11-12 08:24:59 51°13.087 2°50.238 16.280248 0.008324 0.046017  
2002-11-12 08:25:03 51°13.081 2°50.221 16.034315 0.008324 0.046018  
2002-11-12 08:25:09 51°13.072 2°50.196 16.214724 0.008324 0.046019  
2002-11-12 08:25:13 51°13.067 2°50.179 16.214724 0.008324 0.046019  
2002-11-12 08:25:19 51°13.058 2°50.154 16.320881 0.008324 0.046019  
2002-11-12 08:25:23 51°13.052 2°50.138 16.220792 0.008324 0.04602  
2002-11-12 08:25:28 51°13.045 2°50.117 16.570082 0.008324 0.04602  
2002-11-12 08:25:33 51°13.038 2°50.096 16.295787 0.008324 0.046021  
2002-11-12 08:25:39 51°13.03 2°50.071 16.190019 0.008324 0.046021  
2002-11-12 08:25:43 51°13.024 2°50.054 16.190019 0.008324 0.046021  
2002-11-12 08:25:47 51°13.018 2°50.037 16.189891 0.008324 0.046022  
2002-11-12 08:25:53 51°13.01 2°50.012 16.159959 0.008324 0.046021  
2002-11-12 08:25:59 51°13.002 2°49.986 16.15859 0.008324 0.046022  
2002-11-12 08:26:03 51°12.996 2°49.97 16.165262 0.008324 0.046022  
2002-11-12 08:26:09 51°12.988 2°49.945 16.274911 0.008324 0.046022  
2002-11-12 08:26:13 51°12.982 2°49.928 16.274911 0.008324 0.046022  
2002-11-12 08:26:19 51°12.974 2°49.903 16.275082 0.008324 0.046023  
2002-11-12 08:26:23 51°12.968 2°49.886 15.994455 0.008324 0.046023  
2002-11-12 08:26:29 51°12.959 2°49.86 16.246982 0.008324 0.046023  
2002-11-12 08:26:33 51°12.954 2°49.844 16.352619 0.008324 0.046023  
2002-11-12 08:26:39 51°12.945 2°49.819 16.078563 0.008324 0.046023  
2002-11-12 08:26:43 51°12.94 2°49.802 16.078563 0.008324 0.046023  
2002-11-12 08:26:49 51°12.931 2°49.777 16.360253 0.008324 0.046023  
2002-11-12 08:26:53 51°12.926 2°49.759 16.150891 0.008324 0.046024  
2002-11-12 08:26:59 51°12.917 2°49.734 16.257916 0.008324 0.046024  
2002-11-12 08:27:03 51°12.911 2°49.717 16.263083 0.008324 0.046024  
2002-11-12 08:27:09 51°12.903 2°49.692 16.262955 0.008324 0.046024  
2002-11-12 08:27:14 51°12.896 2°49.671 16.262955 0.008324 0.046024  
2002-11-12 08:27:19 51°12.889 2°49.65 16.439738 0.008324 0.046025  
2002-11-12 08:27:23 51°12.883 2°49.633 16.13027 0.008324 0.046025  
2002-11-12 08:27:29 51°12.875 2°49.607 16.308165 0.008324 0.046025  
2002-11-12 08:27:34 51°12.867 2°49.587 16.239292 0.008324 0.046025  
2002-11-12 08:27:39 51°12.861 2°49.565 16.523471 0.008324 0.046026  
2002-11-12 08:27:43 51°12.855 2°49.548 16.523471 0.008324 0.046026  
2002-11-12 08:27:48 51°12.849 2°49.526 16.347501 0.008324 0.046026  
2002-11-12 08:27:54 51°12.841 2°49.501 16.352491 0.008324 0.046026  
2002-11-12 08:27:59 51°12.834 2°49.479 16.355477 0.008324 0.046026  
2002-11-12 08:28:04 51°12.826 2°49.458 16.356458 0.008324 0.046026  
2002-11-12 08:28:09 51°12.819 2°49.437 16.186855 0.008324 0.046026  
2002-11-12 08:28:13 51°12.814 2°49.42 16.186855 0.008324 0.046026  
2002-11-12 08:28:19 51°12.806 2°49.394 16.366394 0.008324 0.046027  
2002-11-12 08:28:23 51°12.8 2°49.378 16.399219 0.008324 0.046027  
2002-11-12 08:28:27 51°12.795 2°49.36 16.369592 0.008324 0.046027  
2002-11-12 08:28:34 51°12.785 2°49.331 16.26398 0.008324 0.046028  
2002-11-12 08:28:38 51°12.78 2°49.314 16.44289 0.008324 0.046028  
2002-11-12 08:28:43 51°12.773 2°49.293 16.44289 0.008324 0.046028  
2002-11-12 08:28:49 51°12.765 2°49.267 16.167015 0.008324 0.046028  
2002-11-12 08:28:54 51°12.758 2°49.246 16.276022 0.008324 0.046028  
2002-11-12 08:28:59 51°12.752 2°49.225 16.485811 0.008324 0.046028  
2002-11-12 08:29:03 51°12.746 2°49.208 16.245273 0.008324 0.046028  
2002-11-12 08:29:08 51°12.74 2°49.186 16.421378 0.008324 0.046029  
2002-11-12 08:29:13 51°12.733 2°49.164 16.421378 0.008324 0.046029  
2002-11-12 08:29:19 51°12.724 2°49.139 16.286012 0.008324 0.046029  
2002-11-12 08:29:23 51°12.719 2°49.122 16.112425 0.008324 0.046029  
2002-11-12 08:29:29 51°12.711 2°49.096 16.327622 0.008324 0.046029  
2002-11-12 08:29:34 51°12.704 2°49.075 16.33095 0.008324 0.046029  
2002-11-12 08:29:39 51°12.697 2°49.053 16.610756 0.008324 0.04603  
2002-11-12 08:29:43 51°12.692 2°49.037 16.610756 0.008324 0.04603  
2002-11-12 08:29:49 51°12.684 2°49.011 16.232884 0.008324 0.04603  
2002-11-12 08:29:54 51°12.677 2°48.99 16.128644 0.008324 0.046031  
2002-11-12 08:29:58 51°12.672 2°48.973 16.37441 0.008324 0.046031  
2002-11-12 08:30:03 51°12.665 2°48.952 16.415498 0.008324 0.046031  
2002-11-12 08:30:09 51°12.657 2°48.926 16.341956 0.008324 0.046031  
2002-11-12 08:30:14 51°12.65 2°48.905 16.341956 0.008324 0.046031  
2002-11-12 08:30:19 51°12.643 2°48.884 16.417799 0.008324 0.046031  
2002-11-12 08:30:23 51°12.638 2°48.867 16.316145 0.008324 0.046031  
2002-11-12 08:30:27 51°12.632 2°48.85 16.600728 0.008324 0.046031  
2002-11-12 08:30:34 51°12.622 2°48.821 16.290281 0.008324 0.046031  
2002-11-12 08:30:39 51°12.615 2°48.799 16.571995 0.008324 0.046032  
2002-11-12 08:30:43 51°12.61 2°48.782 16.571995 0.008324 0.046032  
2002-11-12 08:30:49 51°12.602 2°48.757 16.504367 0.008324 0.046032  
2002-11-12 08:30:54 51°12.595 2°48.736 16.57935 0.008324 0.046032  
2002-11-12 08:30:59 51°12.588 2°48.715 16.337093 0.008324 0.046033  
2002-11-12 08:31:03 51°12.582 2°48.698 16.303641 0.008324 0.046033  
2002-11-12 08:31:09 51°12.574 2°48.672 16.062075 0.008324 0.046033  
2002-11-12 08:31:14 51°12.567 2°48.651 16.062075 0.008324 0.046033  
2002-11-12 08:31:19 51°12.56 2°48.63 16.659261 0.008324 0.046033  
2002-11-12 08:31:23 51°12.555 2°48.613 16.450897 0.008324 0.046033  
2002-11-12 08:31:29 51°12.546 2°48.587 16.317382 0.008324 0.046033  
2002-11-12 08:31:33 51°12.541 2°48.57 16.525428 0.008324 0.046034  
2002-11-12 08:31:39 51°12.533 2°48.544 16.215322 0.008324 0.046035  
2002-11-12 08:31:43 51°12.527 2°48.527 16.215322 0.008324 0.046035  
2002-11-12 08:31:49 51°12.519 2°48.501 16.357481 0.008324 0.046035  
2002-11-12 08:31:54 51°12.512 2°48.48 16.361788 0.008324 0.046035  
2002-11-12 08:31:59 51°12.505 2°48.459 16.398622 0.008324 0.046035  
2002-11-12 08:32:03 51°12.499 2°48.442 16.30061 0.008324 0.046035  
2002-11-12 08:32:09 51°12.491 2°48.416 16.297879 0.008324 0.046036  
2002-11-12 08:32:14 51°12.484 2°48.395 16.297879 0.008324 0.046036  
2002-11-12 08:32:19 51°12.477 2°48.374 16.308933 0.008324 0.046036  
2002-11-12 08:32:23 51°12.472 2°48.357 16.515983 0.008324 0.046036  
2002-11-12 08:32:29 51°12.464 2°48.331 16.448768 0.008324 0.046036  
2002-11-12 08:32:34 51°12.457 2°48.31 16.34797 0.008324 0.046036  
2002-11-12 08:32:39 51°12.45 2°48.289 16.670978 0.008324 0.046037  
2002-11-12 08:32:43 51°12.444 2°48.271 16.670978 0.008324 0.046037  
2002-11-12 08:32:49 51°12.436 2°48.247 16.427768 0.008324 0.046037  
2002-11-12 08:32:54 51°12.429 2°48.225 16.430921 0.008324 0.046037  
2002-11-12 08:32:59 51°12.423 2°48.204 16.395809 0.008324 0.046037  
2002-11-12 08:33:04 51°12.416 2°48.183 16.295062 0.008324 0.046038  
2002-11-12 08:33:09 51°12.409 2°48.162 16.263169 0.008324 0.046038  
2002-11-12 08:33:14 51°12.402 2°48.14 16.263169 0.008324 0.046038  
2002-11-12 08:33:19 51°12.395 2°48.119 16.300995 0.008324 0.046038  
2002-11-12 08:33:23 51°12.389 2°48.102 16.516792 0.008324 0.046038  
2002-11-12 08:33:29 51°12.381 2°48.077 16.34153 0.008324 0.046038  
2002-11-12 08:33:31 51°12.378 2°48.068 16.379909 0.008324 0.046039  
2002-11-12 08:33:38 51°12.369 2°48.038 16.594056 0.008324 0.046039  
2002-11-12 08:33:43 51°12.362 2°48.017 16.594056 0.008324 0.046039  
2002-11-12 08:33:49 51°12.354 2°47.992 16.561451 0.008324 0.046039  
2002-11-12 08:33:54 51°12.347 2°47.97 16.642275 0.008324 0.04604  
2002-11-12 08:33:59 51°12.34 2°47.949 16.323868 0.008324 0.04604  
2002-11-12 08:34:03 51°12.335 2°47.932 16.462523 0.008324 0.04604  
2002-11-12 08:34:09 51°12.327 2°47.906 16.366479 0.008324 0.046041  
2002-11-12 08:34:13 51°12.321 2°47.889 16.366479 0.008324 0.046041  
2002-11-12 08:34:19 51°12.313 2°47.864 16.436075 0.008324 0.046041  
2002-11-12 08:34:23 51°12.307 2°47.847 16.308122 0.008324 0.046041  
2002-11-12 08:34:29 51°12.299 2°47.821 16.654123 0.008324 0.046041  
2002-11-12 08:34:34 51°12.292 2°47.8 16.417415 0.008324 0.046041  
2002-11-12 08:34:39 51°12.285 2°47.778 16.416478 0.008324 0.046041  
2002-11-12 08:34:43 51°12.28 2°47.762 16.416478 0.008324 0.046041  
2002-11-12 08:34:49 51°12.272 2°47.736 16.38673 0.008324 0.046041  
2002-11-12 08:34:54 51°12.265 2°47.715 16.566213 0.00822 0.045548  
2002-11-12 08:34:59 51°12.258 2°47.694 16.431049 0.008324 0.046042  
2002-11-12 08:35:03 51°12.253 2°47.676 16.499175 0.008324 0.046042  
2002-11-12 08:35:07 51°12.248 2°47.659 16.573271 0.008324 0.046042  
2002-11-12 08:35:14 51°12.239 2°47.63 16.573271 0.008324 0.046042  
2002-11-12 08:35:19 51°12.232 2°47.609 16.334235 0.008324 0.046043  
2002-11-12 08:35:23 51°12.226 2°47.592 16.580497 0.008324 0.046043  
2002-11-12 08:35:29 51°12.218 2°47.566 16.304622 0.008324 0.046043  
2002-11-12 08:35:33 51°12.213 2°47.549 16.520195 0.008324 0.046043  
2002-11-12 08:35:39 51°12.204 2°47.523 16.451025 0.008324 0.046044  
2002-11-12 08:35:43 51°12.199 2°47.506 16.451025 0.008324 0.046044  
2002-11-12 08:35:49 51°12.191 2°47.481 16.454091 0.008324 0.046044  
2002-11-12 08:35:54 51°12.184 2°47.46 16.35279 0.00822 0.04555  
2002-11-12 08:35:59 51°12.177 2°47.438 16.845825 0.008324 0.046045  
2002-11-12 08:36:03 51°12.172 2°47.421 16.464141 0.008324 0.046045  
2002-11-12 08:36:09 51°12.164 2°47.395 16.363068 0.008324 0.046045  
2002-11-12 08:36:14 51°12.157 2°47.374 16.363068 0.008324 0.046045  
2002-11-12 08:36:19 51°12.15 2°47.352 16.683585 0.008324 0.046045  
2002-11-12 08:36:23 51°12.145 2°47.335 16.405313 0.008324 0.046046  
2002-11-12 08:36:29 51°12.137 2°47.31 16.48066 0.008324 0.046046  
2002-11-12 08:36:33 51°12.131 2°47.293 16.410299 0.008324 0.046046  
2002-11-12 08:36:38 51°12.124 2°47.272 16.486321 0.008324 0.046046  
2002-11-12 08:36:43 51°12.117 2°47.251 16.486321 0.008324 0.046046  
2002-11-12 08:36:49 51°12.109 2°47.225 16.527045 0.008324 0.046046  
2002-11-12 08:36:54 51°12.102 2°47.203 16.702258 0.008324 0.046046  
2002-11-12 08:36:59 51°12.095 2°47.181 16.845867 0.008324 0.046047  
2002-11-12 08:37:03 51°12.09 2°47.164 16.567404 0.008324 0.046047  
2002-11-12 08:37:09 51°12.082 2°47.138 16.712101 0.008324 0.046047  
2002-11-12 08:37:14 51°12.075 2°47.117 16.712101 0.008324 0.046047  
2002-11-12 08:37:19 51°12.068 2°47.096 16.712526 0.008324 0.046048  
2002-11-12 08:37:23 51°12.063 2°47.079 16.612115 0.008324 0.046048  
2002-11-12 08:37:29 51°12.054 2°47.054 16.688806 0.008324 0.046049  
2002-11-12 08:37:33 51°12.049 2°47.037 16.69063 0.008324 0.046048  
2002-11-12 08:37:39 51°12.041 2°47.011 16.413495 0.008324 0.046049  
2002-11-12 08:37:43 51°12.035 2°46.994 16.413495 0.008324 0.046049  
2002-11-12 08:37:49 51°12.027 2°46.969 16.489343 0.008324 0.046049  
2002-11-12 08:37:53 51°12.021 2°46.952 16.665884 0.008324 0.046049  
2002-11-12 08:37:59 51°12.013 2°46.927 16.630468 0.008324 0.046049  
2002-11-12 08:38:03 51°12.008 2°46.91 16.674332 0.008324 0.046049  
2002-11-12 08:38:09 51°12 2°46.885 16.536233 0.008324 0.04605  
2002-11-12 08:38:14 51°11.993 2°46.864 16.536233 0.008324 0.04605  
2002-11-12 08:38:19 51°11.986 2°46.843 16.50726 0.008324 0.04605  
2002-11-12 08:38:23 51°11.98 2°46.826 16.751249 0.008324 0.046051  
2002-11-12 08:38:29 51°11.972 2°46.801 16.444381 0.008324 0.04605  
2002-11-12 08:38:33 51°11.967 2°46.784 16.688508 0.008324 0.046051  
2002-11-12 08:38:39 51°11.959 2°46.758 16.764605 0.008324 0.046051  
2002-11-12 08:38:43 51°11.953 2°46.741 16.764605 0.008324 0.046051  
2002-11-12 08:38:49 51°11.945 2°46.716 16.48862 0.008324 0.046051  
2002-11-12 08:38:53 51°11.94 2°46.699 16.803129 0.008324 0.046052  
2002-11-12 08:38:59 51°11.932 2°46.674 16.525641 0.008324 0.046052  
2002-11-12 08:39:03 51°11.927 2°46.657 16.744634 0.008324 0.046052  
2002-11-12 08:39:09 51°11.919 2°46.631 16.747645 0.008324 0.046052  
2002-11-12 08:39:14 51°11.912 2°46.61 16.747645 0.008324 0.046052  
2002-11-12 08:39:19 51°11.905 2°46.589 16.955914 0.008324 0.046052  
2002-11-12 08:39:24 51°11.898 2°46.568 16.753242 0.008324 0.046052  
2002-11-12 08:39:29 51°11.892 2°46.547 16.790248 0.008324 0.046053  
2002-11-12 08:39:33 51°11.887 2°46.53 16.515728 0.008324 0.046054  
2002-11-12 08:39:39 51°11.879 2°46.505 16.690164 0.008324 0.046053  
2002-11-12 08:39:43 51°11.873 2°46.488 16.690164 0.008324 0.046053  
2002-11-12 08:39:49 51°11.865 2°46.462 16.836509 0.00822 0.04556  
2002-11-12 08:39:54 51°11.858 2°46.441 16.873342 0.008324 0.046054  
2002-11-12 08:39:59 51°11.851 2°46.42 16.667412 0.008324 0.046054  
2002-11-12 08:40:03 51°11.846 2°46.403 16.669832 0.00822 0.045561  
2002-11-12 08:40:09 51°11.838 2°46.378 16.744592 0.008324 0.046054  
2002-11-12 08:40:13 51°11.832 2°46.36 16.744592 0.008324 0.046054  
2002-11-12 08:40:19 51°11.824 2°46.334 16.573781 0.008324 0.046055  
2002-11-12 08:40:23 51°11.819 2°46.317 16.750062 0.008324 0.046055  
2002-11-12 08:40:29 51°11.81 2°46.292 16.719525 0.008324 0.046055  
2002-11-12 08:40:34 51°11.804 2°46.271 16.61373 0.008324 0.046056  
2002-11-12 08:40:39 51°11.797 2°46.249 16.901611 0.008324 0.046056  
2002-11-12 08:40:43 51°11.792 2°46.233 16.901611 0.008324 0.046056  
2002-11-12 08:40:49 51°11.784 2°46.207 16.759856 0.008324 0.046056  
2002-11-12 08:40:53 51°11.778 2°46.19 16.767318 0.008324 0.046056  
2002-11-12 08:40:59 51°11.77 2°46.164 16.842522 0.008324 0.046057  
2002-11-12 08:41:03 51°11.765 2°46.147 16.701367 0.008324 0.046057  
2002-11-12 08:41:09 51°11.757 2°46.122 16.774693 0.008324 0.046057  
2002-11-12 08:41:13 51°11.751 2°46.104 16.774693 0.008324 0.046057  
2002-11-12 08:41:19 51°11.743 2°46.079 16.743617 0.00822 0.045563  
2002-11-12 08:41:23 51°11.738 2°46.062 16.92217 0.008324 0.046057  
2002-11-12 08:41:29 51°11.73 2°46.037 16.823379 0.008324 0.046058  
2002-11-12 08:41:34 51°11.723 2°46.016 16.859797 0.008324 0.046059  
2002-11-12 08:41:39 51°11.716 2°45.995 16.792409 0.008324 0.046058  
2002-11-12 08:41:43 51°11.711 2°45.978 16.792409 0.008324 0.046058  
2002-11-12 08:41:49 51°11.703 2°45.952 16.832528 0.008324 0.046059  
2002-11-12 08:41:54 51°11.696 2°45.931 16.734626 0.008324 0.046059  
2002-11-12 08:41:59 51°11.69 2°45.91 16.872665 0.00822 0.045566  
2002-11-12 08:42:04 51°11.683 2°45.889 16.704295 0.00822 0.045565  
2002-11-12 08:42:09 51°11.676 2°45.868 16.777025 0.008324 0.04606  
2002-11-12 08:42:14 51°11.669 2°45.847 16.777025 0.008324 0.04606  
2002-11-12 08:42:19 51°11.663 2°45.826 16.815119 0.008324 0.04606  
2002-11-12 08:42:23 51°11.657 2°45.809 16.92217 0.00822 0.045566  
2002-11-12 08:42:29 51°11.649 2°45.784 16.786688 0.008324 0.046061  
2002-11-12 08:42:33 51°11.644 2°45.767 16.859331 0.008324 0.046061  
2002-11-12 08:42:39 51°11.636 2°45.741 17.103551 0.008324 0.046061  
2002-11-12 08:42:43 51°11.631 2°45.725 17.103551 0.008324 0.046061  
2002-11-12 08:42:49 51°11.623 2°45.699 17.003627 0.00822 0.045567  
2002-11-12 08:42:53 51°11.618 2°45.682 16.760916 0.008324 0.046062  
2002-11-12 08:42:59 51°11.61 2°45.657 17.014145 0.008324 0.046062  
2002-11-12 08:43:03 51°11.604 2°45.64 16.704804 0.008324 0.046062  
2002-11-12 08:43:09 51°11.596 2°45.615 16.635182 0.00822 0.045568  
2002-11-12 08:43:13 51°11.591 2°45.598 16.635182 0.00822 0.045568  
2002-11-12 08:43:19 51°11.583 2°45.572 16.878125 0.008324 0.046063  
2002-11-12 08:43:23 51°11.578 2°45.555 16.782492 0.008324 0.046063  
2002-11-12 08:43:29 51°11.57 2°45.53 16.888621 0.00822 0.045568  
2002-11-12 08:43:34 51°11.564 2°45.509 16.827403 0.008324 0.046064  
2002-11-12 08:43:39 51°11.557 2°45.487 16.962424 0.008324 0.046064  
2002-11-12 08:43:43 51°11.551 2°45.471 16.962424 0.008324 0.046064  
2002-11-12 08:43:49 51°11.544 2°45.445 16.898099 0.00822 0.04557  
2002-11-12 08:43:53 51°11.539 2°45.427 16.87148 0.00822 0.04557  
2002-11-12 08:43:58 51°11.532 2°45.406 16.77037 0.00822 0.04557  
2002-11-12 08:44:03 51°11.526 2°45.384 16.875459 0.00822 0.04557  
2002-11-12 08:44:09 51°11.519 2°45.358 16.919843 0.008324 0.046064  
2002-11-12 08:44:14 51°11.513 2°45.336 16.919843 0.008324 0.046064  
2002-11-12 08:44:19 51°11.507 2°45.314 16.954519 0.00822 0.04557  
2002-11-12 08:44:23 51°11.503 2°45.296 16.715071 0.008324 0.046065  
2002-11-12 08:44:29 51°11.496 2°45.27 16.889382 0.00822 0.045571  
2002-11-12 08:44:33 51°11.491 2°45.252 16.925976 0.008324 0.046066  
2002-11-12 08:44:39 51°11.484 2°45.225 16.90233 0.00822 0.045572  
2002-11-12 08:44:43 51°11.479 2°45.208 16.90233 0.00822 0.045572  
2002-11-12 08:44:49 51°11.472 2°45.181 28.419543 0.008324 0.046066  
2002-11-12 08:44:54 51°11.466 2°45.159 28.371351 0.00822 0.045568  
2002-11-12 08:44:59 51°11.46 2°45.137 29.832306 0.00822 0.045567  
2002-11-12 08:45:03 51°11.456 2°45.12 28.430352 0.008324 0.046061  
2002-11-12 08:45:09 51°11.448 2°45.093 30.190257 0.00822 0.045567  
2002-11-12 08:45:13 51°11.444 2°45.076 30.190257 0.00822 0.045567  
2002-11-12 08:45:19 51°11.437 2°45.049 28.009226 0.008324 0.046066  
2002-11-12 08:45:23 51°11.433 2°45.031 27.812375 0.00822 0.045573  
2002-11-12 08:45:29 51°11.426 2°45.005 29.497203 0.00822 0.045573  
2002-11-12 08:45:33 51°11.421 2°44.987 29.760095 0.008324 0.046069  
2002-11-12 08:45:39 51°11.414 2°44.961 27.027397 0.00822 0.045575  
2002-11-12 08:45:43 51°11.41 2°44.943 27.027397 0.00822 0.045575  
2002-11-12 08:45:49 51°11.403 2°44.916 29.537757 0.008324 0.046069  
2002-11-12 08:45:53 51°11.398 2°44.899 28.143488 0.008324 0.046069  
2002-11-12 08:45:59 51°11.392 2°44.872 28.572743 0.00822 0.045576  
2002-11-12 08:46:03 51°11.388 2°44.854 27.568111 0.008324 0.04607  
2002-11-12 08:46:09 51°11.381 2°44.828 27.99687 0.008324 0.046071  
2002-11-12 08:46:13 51°11.377 2°44.81 27.99687 0.008324 0.046071  
2002-11-12 08:46:19 51°11.371 2°44.783 28.444978 0.00822 0.045577  
2002-11-12 08:46:23 51°11.367 2°44.765 27.151969 0.008324 0.046072  
2002-11-12 08:46:29 51°11.36 2°44.738 28.777828 0.00822 0.045577  
2002-11-12 08:46:34 51°11.355 2°44.716 28.955169 0.00822 0.045578  
2002-11-12 08:46:39 51°11.349 2°44.694 28.917701 0.008324 0.046073  
2002-11-12 08:46:43 51°11.345 2°44.676 28.917701 0.008324 0.046073  
2002-11-12 08:46:49 51°11.338 2°44.649 27.916089 0.00822 0.045579  
2002-11-12 08:46:54 51°11.333 2°44.626 28.883581 0.008324 0.046073  
2002-11-12 08:46:59 51°11.328 2°44.604 27.8301 0.008324 0.046074  
2002-11-12 08:47:03 51°11.323 2°44.586 28.906568 0.00822 0.045579  
2002-11-12 08:47:09 51°11.317 2°44.559 28.436764 0.00822 0.045579  
2002-11-12 08:47:14 51°11.311 2°44.536 28.436764 0.00822 0.045579  
2002-11-12 08:47:19 51°11.306 2°44.514 29.001987 0.00822 0.045579  
2002-11-12 08:47:23 51°11.302 2°44.496 29.881127 0.008324 0.046074  
2002-11-12 08:47:29 51°11.295 2°44.469 29.642059 0.008324 0.046074  
2002-11-12 08:47:34 51°11.29 2°44.446 29.707016 0.00822 0.045579  
2002-11-12 08:47:39 51°11.284 2°44.424 30.753427 0.008324 0.046074  
2002-11-12 08:47:43 51°11.28 2°44.406 30.753427 0.008324 0.046074  
2002-11-12 08:47:49 51°11.273 2°44.379 28.962861 0.00822 0.04558  
2002-11-12 08:47:54 51°11.268 2°44.356 27.385399 0.008324 0.046075  
2002-11-12 08:47:59 51°11.263 2°44.334 27.732994 0.00822 0.045581  
2002-11-12 08:48:03 51°11.259 2°44.315 27.666014 0.00822 0.045581  
2002-11-12 08:48:09 51°11.252 2°44.288 26.847838 0.00822 0.045581  
2002-11-12 08:48:13 51°11.248 2°44.27 26.847838 0.00822 0.045581  
2002-11-12 08:48:19 51°11.241 2°44.243 27.294112 0.00822 0.045582  
2002-11-12 08:48:23 51°11.237 2°44.225 27.543141 0.008324 0.046076  
2002-11-12 08:48:29 51°11.23 2°44.197 27.275161 0.008324 0.046076  
2002-11-12 08:48:34 51°11.225 2°44.175 26.915412 0.00822 0.045582  
2002-11-12 08:48:39 51°11.22 2°44.152 27.575217 0.00822 0.045582  
2002-11-12 08:48:43 51°11.215 2°44.134 27.575217 0.00822 0.045582  
2002-11-12 08:48:49 51°11.209 2°44.106 28.171656 0.008324 0.046077  
2002-11-12 08:48:54 51°11.204 2°44.084 27.966896 0.008324 0.046077  
2002-11-12 08:48:59 51°11.198 2°44.061 28.570873 0.00822 0.045583  
2002-11-12 08:49:03 51°11.194 2°44.043 27.165821 0.00822 0.045583  
2002-11-12 08:49:09 51°11.188 2°44.016 27.574561 0.00822 0.045583  
2002-11-12 08:49:14 51°11.182 2°43.993 27.574561 0.00822 0.045583  
2002-11-12 08:49:19 51°11.177 2°43.971 28.465219 0.00822 0.045584  
2002-11-12 08:49:23 51°11.172 2°43.953 28.908358 0.00822 0.045584  
2002-11-12 08:49:29 51°11.166 2°43.926 27.634232 0.00822 0.045584  
2002-11-12 08:49:33 51°11.161 2°43.908 27.187878 0.00822 0.045584  
2002-11-12 08:49:39 51°11.155 2°43.881 27.054082 0.00822 0.045584  
2002-11-12 08:49:43 51°11.151 2°43.862 27.054082 0.00822 0.045584  
2002-11-12 08:49:49 51°11.144 2°43.836 27.7603 0.00822 0.045584  
2002-11-12 08:49:53 51°11.14 2°43.818 27.525164 0.00822 0.045584  
2002-11-12 08:49:59 51°11.133 2°43.79 28.103224 0.00822 0.045585  
2002-11-12 08:50:03 51°11.129 2°43.772 27.170439 0.00822 0.045585  
2002-11-12 08:50:09 51°11.122 2°43.745 27.857189 0.00822 0.045585  
2002-11-12 08:50:13 51°11.118 2°43.727 27.857189 0.00822 0.045585  
2002-11-12 08:50:19 51°11.111 2°43.7 28.311401 0.00822 0.045585  
2002-11-12 08:50:23 51°11.107 2°43.682 27.92251 0.00822 0.045586  
2002-11-12 08:50:29 51°11.1 2°43.655 27.030811 0.008324 0.04608  
2002-11-12 08:50:34 51°11.095 2°43.632 27.811903 0.00822 0.045586  
2002-11-12 08:50:39 51°11.089 2°43.61 26.673449 0.00822 0.045586  
2002-11-12 08:50:43 51°11.086 2°43.593 26.673449 0.00822 0.045586  
2002-11-12 08:50:49 51°11.081 2°43.57 26.030752 0.00822 0.045586  
2002-11-12 08:50:54 51°11.078 2°43.553 26.729425 0.00822 0.045586  
2002-11-12 08:50:59 51°11.076 2°43.537 27.768697 0.00822 0.045586  
2002-11-12 08:51:04 51°11.075 2°43.521 26.601371 0.00822 0.045587  
2002-11-12 08:51:09 51°11.075 2°43.507 28.219652 0.00822 0.045587  
2002-11-12 08:51:14 51°11.076 2°43.494 28.219652 0.00822 0.045587  
2002-11-12 08:51:19 51°11.078 2°43.481 27.203556 0.008324 0.046082  
2002-11-12 08:51:23 51°11.08 2°43.472 27.186193 0.00822 0.045587  
2002-11-12 08:51:29 51°11.085 2°43.459 28.03136 0.00822 0.045588  
2002-11-12 08:51:33 51°11.088 2°43.451 27.468728 0.00822 0.045588  
2002-11-12 08:51:39 51°11.093 2°43.44 28.042081 0.00822 0.045588  
2002-11-12 08:51:43 51°11.097 2°43.434 28.042081 0.00822 0.045588  
2002-11-12 08:51:49 51°11.103 2°43.426 27.73783 0.00822 0.045588  
2002-11-12 08:51:53 51°11.108 2°43.422 27.784688 0.00822 0.045588  
2002-11-12 08:51:59 51°11.115 2°43.416 27.531181 0.00822 0.045588  
2002-11-12 08:52:03 51°11.12 2°43.413 27.303147 0.00822 0.045589  
2002-11-12 08:52:09 51°11.127 2°43.41 27.300258 0.00822 0.045589  
2002-11-12 08:52:13 51°11.133 2°43.409 27.300258 0.00822 0.045589  
2002-11-12 08:52:19 51°11.14 2°43.409 27.428791 0.00822 0.045589  
2002-11-12 08:52:23 51°11.145 2°43.409 26.156791 0.00822 0.045589  
2002-11-12 08:52:29 51°11.153 2°43.411 26.865611 0.00822 0.045589  
2002-11-12 08:52:31 51°11.155 2°43.412 27.34008 0.00822 0.045589  
2002-11-12 08:52:39 51°11.165 2°43.416 26.9135 0.00822 0.045589  
2002-11-12 08:52:43 51°11.169 2°43.419 26.9135 0.00822 0.045589  
2002-11-12 08:52:49 51°11.175 2°43.425 26.471836 0.00822 0.045589  
2002-11-12 08:52:54 51°11.18 2°43.43 27.112998 0.00822 0.045589  
2002-11-12 08:52:59 51°11.185 2°43.437 27.317191 0.00822 0.045589  
2002-11-12 08:53:04 51°11.189 2°43.443 26.995854 0.00822 0.045589  
2002-11-12 08:53:09 51°11.192 2°43.45 26.301674 0.00822 0.045589  
2002-11-12 08:53:14 51°11.196 2°43.457 26.301674 0.00822 0.045589  
2002-11-12 08:53:19 51°11.198 2°43.465 27.125428 0.008324 0.046085  
2002-11-12 08:53:23 51°11.2 2°43.471 26.342333 0.00822 0.04559  
2002-11-12 08:53:29 51°11.202 2°43.48 26.462033 0.00822 0.045591  
2002-11-12 08:53:34 51°11.204 2°43.488 25.870195 0.00822 0.045591  
2002-11-12 08:53:39 51°11.206 2°43.496 25.719938 0.00822 0.045591  
2002-11-12 08:53:43 51°11.207 2°43.503 25.719938 0.00822 0.045591  
2002-11-12 08:53:49 51°11.209 2°43.513 26.868223 0.00822 0.045591  
2002-11-12 08:53:53 51°11.21 2°43.521 27.761899 0.00822 0.045592  
2002-11-12 08:53:59 51°11.212 2°43.531 27.284637 0.00822 0.045592  
2002-11-12 08:54:03 51°11.214 2°43.539 26.60318 0.00822 0.045592  
2002-11-12 08:54:09 51°11.216 2°43.55 27.838635 0.00822 0.045592  
2002-11-12 08:54:14 51°11.217 2°43.56 27.838635 0.00822 0.045592  
2002-11-12 08:54:19 51°11.219 2°43.569 26.939344 0.00822 0.045593  
2002-11-12 08:54:23 51°11.22 2°43.577 26.432987 0.00822 0.045593  
2002-11-12 08:54:29 51°11.221 2°43.589 26.506561 0.00822 0.045593  
2002-11-12 08:54:34 51°11.222 2°43.598 26.663267 0.00822 0.045593  
2002-11-12 08:54:39 51°11.223 2°43.608 26.633119 0.00822 0.045593  
2002-11-12 08:54:43 51°11.223 2°43.615 26.633119 0.00822 0.045593  
2002-11-12 08:54:49 51°11.222 2°43.626 27.116922 0.00822 0.045593  
2002-11-12 08:54:54 51°11.222 2°43.636 26.719288 0.00822 0.045593  
2002-11-12 08:54:59 51°11.221 2°43.645 27.014363 0.00822 0.045593  
2002-11-12 08:55:03 51°11.22 2°43.652 26.89743 0.00822 0.045594  
2002-11-12 08:55:09 51°11.219 2°43.663 26.230826 0.00822 0.045593  
2002-11-12 08:55:14 51°11.218 2°43.672 26.230826 0.00822 0.045593  
2002-11-12 08:55:19 51°11.216 2°43.68 26.450823 0.00822 0.045593  
2002-11-12 08:55:23 51°11.215 2°43.687 26.823213 0.00822 0.045594  
2002-11-12 08:55:29 51°11.212 2°43.697 26.996772 0.00822 0.045595  
2002-11-12 08:55:33 51°11.211 2°43.704 26.786022 0.00822 0.045595  
2002-11-12 08:55:39 51°11.208 2°43.713 26.782854 0.00822 0.045595  
2002-11-12 08:55:43 51°11.206 2°43.72 26.782854 0.00822 0.045595  
2002-11-12 08:55:49 51°11.203 2°43.729 26.747337 0.00822 0.045595  
2002-11-12 08:55:54 51°11.201 2°43.736 26.339628 0.00822 0.045595  
2002-11-12 08:55:59 51°11.198 2°43.743 27.60484 0.00822 0.045596  
2002-11-12 08:56:03 51°11.195 2°43.747 26.08547 0.00822 0.045596  
2002-11-12 08:56:09 51°11.193 2°43.754 27.413015 0.00822 0.045596  
2002-11-12 08:56:14 51°11.191 2°43.757 27.413015 0.00822 0.045596  
2002-11-12 08:56:19 51°11.19 2°43.761 28.635251 0.00822 0.045596  
2002-11-12 08:56:23 51°11.19 2°43.762 28.132239 0.00822 0.045596  
2002-11-12 08:56:29 51°11.191 2°43.764 28.484662 0.00822 0.045597  
2002-11-12 08:56:34 51°11.193 2°43.764 27.059697 0.00822 0.045596  
2002-11-12 08:56:39 51°11.195 2°43.763 27.028608 0.00822 0.045597  
2002-11-12 08:56:43 51°11.196 2°43.763 27.028608 0.00822 0.045597  
2002-11-12 08:56:50 51°11.199 2°43.763 27.328454 0.00822 0.045598  
2002-11-12 08:56:55 51°11.201 2°43.763 26.522236 0.00822 0.045597  
2002-11-12 08:57:00 51°11.202 2°43.764 26.57659 0.00822 0.045598  
2002-11-12 08:57:05 51°11.203 2°43.765 26.304083 0.00822 0.045598  
2002-11-12 08:57:09 51°11.204 2°43.766 26.588815 0.00822 0.045598  
2002-11-12 08:57:14 51°11.205 2°43.768 26.588815 0.00822 0.045598  
2002-11-12 08:57:19 51°11.205 2°43.769 26.530367 0.00822 0.045598  
2002-11-12 08:57:23 51°11.206 2°43.771 27.552255 0.00822 0.045598  
2002-11-12 08:57:30 51°11.207 2°43.773 25.705213 0.00822 0.045598  
2002-11-12 08:57:35 51°11.208 2°43.775 27.459603 0.00822 0.045598  
2002-11-12 08:57:39 51°11.209 2°43.777 27.285515 0.00822 0.045599  
2002-11-12 08:57:44 51°11.209 2°43.78 27.285515 0.00822 0.045599  
2002-11-12 08:57:49 51°11.21 2°43.782 26.49447 0.00822 0.045599  
2002-11-12 08:57:54 51°11.211 2°43.785 27.523414 0.00822 0.045599  
2002-11-12 08:57:59 51°11.211 2°43.788 26.897393 0.00822 0.0456  
2002-11-12 08:58:03 51°11.212 2°43.79 26.954927 0.00822 0.0456  
2002-11-12 08:58:09 51°11.213 2°43.794 26.688757 0.00822 0.0456  
2002-11-12 08:58:14 51°11.214 2°43.797 26.688757 0.00822 0.0456  
2002-11-12 08:58:19 51°11.214 2°43.8 26.145869 0.00822 0.0456  
2002-11-12 08:58:23 51°11.215 2°43.802 27.110395 0.00822 0.0456  
2002-11-12 08:58:29 51°11.216 2°43.805 31.266879 0.00822 0.0456  
2002-11-12 08:58:34 51°11.217 2°43.808 27.015538 0.00822 0.0456  
2002-11-12 08:58:39 51°11.217 2°43.81 26.244964 0.00822 0.045601  
2002-11-12 08:58:43 51°11.218 2°43.812 26.244964 0.00822 0.045601  
2002-11-12 08:58:49 51°11.219 2°43.815 25.905764 0.00822 0.045601  
2002-11-12 08:58:54 51°11.221 2°43.818 27.026002 0.00822 0.045602  
2002-11-12 08:58:59 51°11.222 2°43.82 26.237506 0.00822 0.045602  
2002-11-12 08:59:03 51°11.223 2°43.822 25.938149 0.00822 0.045603  
2002-11-12 08:59:07 51°11.224 2°43.824 26.703729 0.00822 0.045602  
2002-11-12 08:59:14 51°11.225 2°43.827 26.703729 0.00822 0.045602  
2002-11-12 08:59:19 51°11.225 2°43.83 26.495506 0.00822 0.045603  
2002-11-12 08:59:23 51°11.226 2°43.831 26.917287 0.00822 0.045603  
2002-11-12 08:59:29 51°11.225 2°43.833 26.585787 0.00822 0.045603  
2002-11-12 08:59:33 51°11.225 2°43.835 26.381601 0.00822 0.045603  
2002-11-12 08:59:39 51°11.225 2°43.837 26.462329 0.00822 0.045603  
2002-11-12 08:59:43 51°11.227 2°43.839 26.462329 0.00822 0.045603  
2002-11-12 08:59:49 51°11.227 2°43.842 26.952796 0.00822 0.045604  
2002-11-12 08:59:54 51°11.228 2°43.844 26.536761 0.00822 0.045604  
2002-11-12 08:59:59 51°11.228 2°43.846 26.290402 0.00822 0.045604  
2002-11-12 09:00:03 51°11.229 2°43.847 26.743763 0.00822 0.045605  
2002-11-12 09:00:09 51°11.23 2°43.85 26.783591 0.00822 0.045605  
2002-11-12 09:00:14 51°11.232 2°43.851 26.783591 0.00822 0.045605  
2002-11-12 09:00:19 51°11.233 2°43.853 26.165966 0.00822 0.045605  
2002-11-12 09:00:23 51°11.234 2°43.855 26.808854 0.00822 0.045605  
2002-11-12 09:00:29 51°11.234 2°43.857 26.234129 0.00822 0.045605  
2002-11-12 09:00:33 51°11.235 2°43.859 25.441196 0.00822 0.045605  
2002-11-12 09:00:39 51°11.236 2°43.861 26.240104 0.00822 0.045605  
2002-11-12 09:00:43 51°11.237 2°43.862 26.240104 0.00822 0.045605  
2002-11-12 09:00:49 51°11.238 2°43.864 26.782228 0.00822 0.045605  
2002-11-12 09:00:53 51°11.239 2°43.866 25.938968 0.00822 0.045606  
2002-11-12 09:00:59 51°11.24 2°43.868 25.539972 0.00822 0.045607  
2002-11-12 09:01:03 51°11.241 2°43.87 25.725693 0.00822 0.045607  
2002-11-12 09:01:09 51°11.242 2°43.872 27.451098 0.00822 0.045607  
2002-11-12 09:01:14 51°11.243 2°43.874 27.451098 0.00822 0.045607  
2002-11-12 09:01:19 51°11.244 2°43.876 26.062449 0.00822 0.045607  
2002-11-12 09:01:23 51°11.245 2°43.877 26.399264 0.00822 0.045607  
2002-11-12 09:01:29 51°11.246 2°43.879 26.217206 0.00822 0.045607  
2002-11-12 09:01:34 51°11.248 2°43.881 26.098594 0.00822 0.045608  
2002-11-12 09:01:39 51°11.249 2°43.883 26.373823 0.00822 0.045608  
2002-11-12 09:01:43 51°11.25 2°43.884 26.373823 0.00822 0.045608  
2002-11-12 09:01:49 51°11.251 2°43.887 26.615807 0.00822 0.045608  
2002-11-12 09:01:54 51°11.252 2°43.888 26.497539 0.00822 0.045609  
2002-11-12 09:01:59 51°11.253 2°43.89 26.221511 0.00822 0.045609  
2002-11-12 09:02:03 51°11.254 2°43.892 26.74579 0.00822 0.04561  
2002-11-12 09:02:09 51°11.256 2°43.894 25.801395 0.00822 0.045609  
2002-11-12 09:02:14 51°11.257 2°43.896 25.801395 0.00822 0.045609  
2002-11-12 09:02:19 51°11.258 2°43.898 26.441869 0.00822 0.04561  
2002-11-12 09:02:23 51°11.259 2°43.899 26.841066 0.00822 0.04561  
2002-11-12 09:02:29 51°11.26 2°43.901 26.774161 0.00822 0.04561  
2002-11-12 09:02:33 51°11.261 2°43.902 26.270747 0.00822 0.04561  
2002-11-12 09:02:38 51°11.263 2°43.904 25.841735 0.00822 0.04561  
2002-11-12 09:02:43 51°11.264 2°43.906 25.841735 0.00822 0.04561  
2002-11-12 09:02:49 51°11.265 2°43.908 26.23977 0.00822 0.045611  
2002-11-12 09:02:54 51°11.266 2°43.91 26.729425 0.00822 0.045611  
2002-11-12 09:02:59 51°11.267 2°43.911 27.191285 0.00822 0.045611  
2002-11-12 09:03:03 51°11.268 2°43.913 26.184089 0.00822 0.045611  
2002-11-12 09:03:09 51°11.27 2°43.915 27.059147 0.00822 0.045612  
2002-11-12 09:03:14 51°11.271 2°43.916 27.059147 0.00822 0.045612  
2002-11-12 09:03:19 51°11.272 2°43.918 27.182163 0.00822 0.045612  
2002-11-12 09:03:23 51°11.273 2°43.919 27.408194 0.00822 0.045612  
2002-11-12 09:03:29 51°11.274 2°43.921 26.279611 0.00822 0.045612  
2002-11-12 09:03:33 51°11.275 2°43.922 28.056312 0.00822 0.045613  
2002-11-12 09:03:39 51°11.277 2°43.924 26.886286 0.00822 0.045613  
2002-11-12 09:03:43 51°11.278 2°43.926 26.886286 0.00822 0.045613  
2002-11-12 09:03:49 51°11.279 2°43.927 28.168149 0.00822 0.045613  
2002-11-12 09:03:54 51°11.28 2°43.929 27.161864 0.00822 0.045613  
2002-11-12 09:03:59 51°11.282 2°43.93 27.618572 0.00822 0.045613  
2002-11-12 09:04:03 51°11.283 2°43.932 26.683298 0.00822 0.045613  
2002-11-12 09:04:09 51°11.284 2°43.934 26.597715 0.00822 0.045614  
2002-11-12 09:04:13 51°11.285 2°43.935 26.597715 0.00822 0.045614  
2002-11-12 09:04:19 51°11.287 2°43.937 28.265197 0.00822 0.045614  
2002-11-12 09:04:23 51°11.288 2°43.938 28.181598 0.00822 0.045614  
2002-11-12 09:04:28 51°11.289 2°43.939 27.854502 0.00822 0.045614  
2002-11-12 09:04:34 51°11.29 2°43.941 27.169339 0.00822 0.045615  
2002-11-12 09:04:39 51°11.292 2°43.943 27.072907 0.00822 0.045615  
2002-11-12 09:04:43 51°11.293 2°43.944 27.072907 0.00822 0.045615  
2002-11-12 09:04:49 51°11.294 2°43.946 27.385399 0.00822 0.045615  
2002-11-12 09:04:54 51°11.296 2°43.947 27.413672 0.00822 0.045616  
2002-11-12 09:04:59 51°11.297 2°43.949 27.14834 0.00822 0.045615  
2002-11-12 09:05:03 51°11.298 2°43.95 27.596133 0.00822 0.045616  
2002-11-12 09:05:09 51°11.299 2°43.952 28.47991 0.00822 0.045616  
2002-11-12 09:05:14 51°11.301 2°43.953 28.47991 0.00822 0.045616  
2002-11-12 09:05:19 51°11.302 2°43.955 27.423971 0.00822 0.045617  
2002-11-12 09:05:22 51°11.303 2°43.956 27.275636 0.00822 0.045616  
2002-11-12 09:05:29 51°11.304 2°43.958 27.240172 0.00822 0.045617  
2002-11-12 09:05:34 51°11.306 2°43.96 26.979986 0.00822 0.045617  
2002-11-12 09:05:39 51°11.307 2°43.962 27.538838 0.00822 0.045618  
2002-11-12 09:05:44 51°11.308 2°43.963 27.538838 0.00822 0.045618  
2002-11-12 09:05:49 51°11.309 2°43.965 26.888345 0.00822 0.045618  
2002-11-12 09:05:53 51°11.31 2°43.966 26.832453 0.00822 0.045618  
2002-11-12 09:05:58 51°11.311 2°43.968 27.486718 0.00822 0.045618  
2002-11-12 09:06:03 51°11.312 2°43.968 26.947504 0.00822 0.045619  
2002-11-12 09:06:08 51°11.314 2°43.97 28.235222 0.00822 0.045619  
2002-11-12 09:06:13 51°11.315 2°43.971 28.235222 0.00822 0.045619  
2002-11-12 09:06:19 51°11.316 2°43.973 26.773313 0.00822 0.045619  
2002-11-12 09:06:23 51°11.317 2°43.974 27.629461 0.00822 0.045619  
2002-11-12 09:06:29 51°11.319 2°43.976 27.070155 0.00822 0.045619  
2002-11-12 09:06:34 51°11.32 2°43.978 27.674094 0.00822 0.04562  
2002-11-12 09:06:39 51°11.321 2°43.98 27.289686 0.00822 0.045619  
2002-11-12 09:06:44 51°11.322 2°43.982 27.289686 0.00822 0.045619  
2002-11-12 09:06:49 51°11.324 2°43.983 27.440804 0.00822 0.04562  
2002-11-12 09:06:54 51°11.325 2°43.985 27.29082 0.00822 0.045621  
2002-11-12 09:06:59 51°11.326 2°43.986 29.018718 0.00822 0.045621  
2002-11-12 09:07:03 51°11.327 2°43.988 26.933169 0.00822 0.045621  
2002-11-12 09:07:09 51°11.328 2°43.989 26.362785 0.00822 0.045621  
2002-11-12 09:07:14 51°11.329 2°43.991 26.362785 0.00822 0.045621  
2002-11-12 09:07:19 51°11.331 2°43.993 26.968523 0.00822 0.045621  
2002-11-12 09:07:23 51°11.332 2°43.994 26.094579 0.00822 0.045622  
2002-11-12 09:07:29 51°11.333 2°43.995 26.034101 0.00822 0.045622  
2002-11-12 09:07:34 51°11.334 2°43.996 26.096921 0.00822 0.045621  
2002-11-12 09:07:39 51°11.335 2°43.997 26.879039 0.00822 0.045622  
2002-11-12 09:07:43 51°11.337 2°43.998 26.879039 0.00822 0.045622  
2002-11-12 09:07:49 51°11.338 2°43.999 26.239658 0.00822 0.045623  
2002-11-12 09:07:54 51°11.339 2°44.001 27.030995 0.00822 0.045623  
2002-11-12 09:07:58 51°11.34 2°44.002 26.852327 0.00822 0.045623  
2002-11-12 09:08:03 51°11.341 2°44.004 26.496689 0.00822 0.045623  
2002-11-12 09:08:07 51°11.342 2°44.006 26.3241 0.00822 0.045624  
2002-11-12 09:08:14 51°11.343 2°44.009 26.3241 0.00822 0.045624  
2002-11-12 09:08:19 51°11.344 2°44.011 28.857972 0.00822 0.045624  
2002-11-12 09:08:23 51°11.345 2°44.013 26.373675 0.00822 0.045624  
2002-11-12 09:08:29 51°11.346 2°44.016 26.777881 0.00822 0.045624  
2002-11-12 09:08:34 51°11.347 2°44.018 27.137747 0.00822 0.045624  
2002-11-12 09:08:39 51°11.348 2°44.021 27.014546 0.00822 0.045625  
2002-11-12 09:08:43 51°11.349 2°44.022 27.014546 0.00822 0.045625  
2002-11-12 09:08:49 51°11.35 2°44.025 27.91228 0.00822 0.045625  
2002-11-12 09:08:54 51°11.351 2°44.027 27.34454 0.00822 0.045625  
2002-11-12 09:08:59 51°11.352 2°44.03 26.445495 0.00822 0.045625  
2002-11-12 09:09:03 51°11.352 2°44.031 26.651091 0.00822 0.045626  
2002-11-12 09:09:09 51°11.353 2°44.034 26.056237 0.00822 0.045626  
2002-11-12 09:09:14 51°11.354 2°44.036 26.056237 0.00822 0.045626  
2002-11-12 09:09:19 51°11.355 2°44.039 26.635629 0.00822 0.045626  
2002-11-12 09:09:23 51°11.356 2°44.04 26.57334 0.00822 0.045626  
2002-11-12 09:09:27 51°11.357 2°44.042 26.697571 0.00822 0.045626  
2002-11-12 09:09:33 51°11.358 2°44.044 27.240282 0.00822 0.045626  
2002-11-12 09:09:39 51°11.359 2°44.046 26.671236 0.00822 0.045627  
2002-11-12 09:09:43 51°11.359 2°44.048 26.671236 0.00822 0.045627  
2002-11-12 09:09:49 51°11.361 2°44.05 26.672416 0.00822 0.045627  
2002-11-12 09:09:54 51°11.362 2°44.052 26.370082 0.00822 0.045627  
2002-11-12 09:09:59 51°11.363 2°44.054 26.823471 0.00822 0.045627  
2002-11-12 09:10:03 51°11.363 2°44.056 26.736318 0.00822 0.045628  
2002-11-12 09:10:09 51°11.365 2°44.058 27.063734 0.00822 0.045628  
2002-11-12 09:10:14 51°11.366 2°44.06 27.063734 0.00822 0.045628  
2002-11-12 09:10:19 51°11.367 2°44.062 27.871347 0.00822 0.045628  
2002-11-12 09:10:24 51°11.368 2°44.064 26.348632 0.00822 0.045628  
2002-11-12 09:10:29 51°11.369 2°44.065 26.886874 0.00822 0.045628  
2002-11-12 09:10:33 51°11.37 2°44.067 27.250385 0.00822 0.045629  
2002-11-12 09:10:39 51°11.371 2°44.069 26.412888 0.00822 0.045629  
2002-11-12 09:10:43 51°11.372 2°44.07 26.412888 0.00822 0.045629  
2002-11-12 09:10:49 51°11.374 2°44.072 26.134833 0.00822 0.045628  
2002-11-12 09:10:54 51°11.375 2°44.074 26.505045 0.00822 0.045628  
2002-11-12 09:10:59 51°11.376 2°44.075 27.107718 0.00822 0.045629  
2002-11-12 09:11:03 51°11.377 2°44.077 26.959815 0.00822 0.04563  
2002-11-12 09:11:09 51°11.379 2°44.079 26.635998 0.00822 0.04563  
2002-11-12 09:11:14 51°11.38 2°44.081 26.635998 0.00822 0.04563  
2002-11-12 09:11:19 51°11.381 2°44.082 26.128776 0.00822 0.04563  
2002-11-12 09:11:23 51°11.382 2°44.084 25.871128 0.00822 0.04563  
2002-11-12 09:11:27 51°11.383 2°44.085 26.573413 0.00822 0.045631  
2002-11-12 09:11:33 51°11.384 2°44.087 26.57744 0.00822 0.045631  
2002-11-12 09:11:39 51°11.385 2°44.089 28.045666 0.00822 0.045631  
2002-11-12 09:11:43 51°11.386 2°44.09 28.045666 0.00822 0.045631  
2002-11-12 09:11:49 51°11.388 2°44.092 26.491401 0.00822 0.045631  
2002-11-12 09:11:54 51°11.389 2°44.093 26.459518 0.00822 0.045631  
2002-11-12 09:11:59 51°11.39 2°44.095 25.82349 0.00822 0.045631  
2002-11-12 09:12:03 51°11.391 2°44.096 26.824649 0.00822 0.045631  
2002-11-12 09:12:09 51°11.392 2°44.098 27.069054 0.00822 0.045632  
2002-11-12 09:12:14 51°11.393 2°44.1 27.069054 0.00822 0.045632  
2002-11-12 09:12:19 51°11.394 2°44.101 26.701037 0.00822 0.045632  
2002-11-12 09:12:23 51°11.395 2°44.103 26.910595 0.00822 0.045632  
2002-11-12 09:12:29 51°11.396 2°44.104 27.042925 0.00822 0.045632  
2002-11-12 09:12:34 51°11.397 2°44.106 26.00965 0.00822 0.045633  
2002-11-12 09:12:39 51°11.398 2°44.108 26.563624 0.00822 0.045633  
2002-11-12 09:12:43 51°11.399 2°44.109 26.563624 0.00822 0.045633  
2002-11-12 09:12:49 51°11.4 2°44.11 26.49802 0.00822 0.045633  
2002-11-12 09:12:54 51°11.401 2°44.112 27.437664 0.00822 0.045633  
2002-11-12 09:12:59 51°11.402 2°44.113 26.923611 0.00822 0.045633  
2002-11-12 09:13:03 51°11.403 2°44.115 26.289549 0.00822 0.045633  
2002-11-12 09:13:09 51°11.404 2°44.117 26.473797 0.00822 0.045633  
2002-11-12 09:13:14 51°11.406 2°44.118 26.473797 0.00822 0.045633  
2002-11-12 09:13:19 51°11.407 2°44.12 25.993047 0.00822 0.045634  
2002-11-12 09:13:23 51°11.408 2°44.121 26.781749 0.00822 0.045634  
2002-11-12 09:13:29 51°11.409 2°44.123 25.949549 0.00822 0.045634  
2002-11-12 09:13:34 51°11.41 2°44.124 26.23758 0.00822 0.045634  
2002-11-12 09:13:39 51°11.411 2°44.126 25.595281 0.00822 0.045634  
2002-11-12 09:13:43 51°11.412 2°44.127 25.595281 0.00822 0.045634  
2002-11-12 09:13:49 51°11.413 2°44.129 26.028668 0.00822 0.045635  
2002-11-12 09:13:54 51°11.414 2°44.13 25.811398 0.00822 0.045635  
2002-11-12 09:13:59 51°11.415 2°44.132 26.204622 0.00822 0.045635  
2002-11-12 09:14:03 51°11.416 2°44.133 26.631864 0.00822 0.045636  
2002-11-12 09:14:09 51°11.418 2°44.135 26.156308 0.00822 0.045635  
2002-11-12 09:14:14 51°11.419 2°44.136 26.156308 0.00822 0.045635  
2002-11-12 09:14:19 51°11.42 2°44.138 27.096568 0.00822 0.045636  
2002-11-12 09:14:24 51°11.421 2°44.139 25.915082 0.00822 0.045636  
2002-11-12 09:14:29 51°11.422 2°44.14 26.406336 0.00822 0.045636  
2002-11-12 09:14:33 51°11.424 2°44.142 25.701887 0.00822 0.045636  
2002-11-12 09:14:39 51°11.425 2°44.143 26.465252 0.00822 0.045637  
2002-11-12 09:14:43 51°11.426 2°44.144 26.465252 0.00822 0.045637  
2002-11-12 09:14:49 51°11.427 2°44.146 26.642973 0.00822 0.045637  
2002-11-12 09:14:54 51°11.429 2°44.147 26.314797 0.00822 0.045637  
2002-11-12 09:14:59 51°11.43 2°44.149 25.185785 0.00822 0.045637  
2002-11-12 09:15:03 51°11.431 2°44.15 26.436429 0.00822 0.045637  
2002-11-12 09:15:09 51°11.432 2°44.152 25.987946 0.00822 0.045638  
2002-11-12 09:15:13 51°11.433 2°44.153 25.987946 0.00822 0.045638  
2002-11-12 09:15:19 51°11.435 2°44.154 25.683419 0.00822 0.045637  
2002-11-12 09:15:23 51°11.436 2°44.156 26.804362 0.00822 0.045637  
2002-11-12 09:15:29 51°11.438 2°44.157 25.956515 0.00822 0.045638  
2002-11-12 09:15:34 51°11.439 2°44.159 25.807255 0.00822 0.045638  
2002-11-12 09:15:39 51°11.44 2°44.16 25.808039 0.00822 0.045638  
2002-11-12 09:15:43 51°11.44 2°44.161 25.808039 0.00822 0.045638  
2002-11-12 09:15:49 51°11.442 2°44.163 25.992973 0.00822 0.045639  
2002-11-12 09:15:54 51°11.444 2°44.165 27.294222 0.00822 0.045639  
2002-11-12 09:15:59 51°11.446 2°44.166 26.299301 0.00822 0.045639  
2002-11-12 09:16:03 51°11.447 2°44.168 26.090712 0.00822 0.045639  
2002-11-12 09:16:09 51°11.448 2°44.169 26.518465 0.00822 0.045639  
2002-11-12 09:16:14 51°11.448 2°44.171 26.518465 0.00822 0.045639  
2002-11-12 09:16:19 51°11.45 2°44.172 25.939676 0.00822 0.045639  
2002-11-12 09:16:23 51°11.451 2°44.173 26.24719 0.00822 0.04564  
2002-11-12 09:16:29 51°11.452 2°44.175 25.636296 0.00822 0.04564  
2002-11-12 09:16:34 51°11.453 2°44.176 26.61289 0.00822 0.04564  
2002-11-12 09:16:39 51°11.454 2°44.177 26.433061 0.00822 0.04564  
2002-11-12 09:16:43 51°11.455 2°44.178 26.433061 0.00822 0.04564  
2002-11-12 09:16:49 51°11.457 2°44.18 26.644228 0.00822 0.04564  
2002-11-12 09:16:54 51°11.458 2°44.181 26.09443 0.00822 0.04564  
2002-11-12 09:16:59 51°11.46 2°44.183 25.761929 0.00822 0.04564  
2002-11-12 09:17:03 51°11.46 2°44.184 25.794302 0.00822 0.04564  
2002-11-12 09:17:07 51°11.462 2°44.185 26.441092 0.00822 0.045641  
2002-11-12 09:17:14 51°11.463 2°44.187 26.441092 0.00822 0.045641  
2002-11-12 09:17:19 51°11.464 2°44.188 26.979398 0.00822 0.045641  
2002-11-12 09:17:23 51°11.466 2°44.189 26.073495 0.00822 0.045641  
2002-11-12 09:17:29 51°11.467 2°44.191 26.209076 0.00822 0.045641  
2002-11-12 09:17:34 51°11.468 2°44.192 26.530663 0.00822 0.045642  
2002-11-12 09:17:39 51°11.469 2°44.193 26.750986 0.00822 0.045642  
2002-11-12 09:17:43 51°11.47 2°44.194 26.750986 0.00822 0.045642  
2002-11-12 09:17:49 51°11.472 2°44.196 26.595832 0.00822 0.045642  
2002-11-12 09:17:54 51°11.473 2°44.197 26.44605 0.00822 0.045642  
2002-11-12 09:17:59 51°11.474 2°44.198 26.691043 0.00822 0.045642  
2002-11-12 09:18:03 51°11.476 2°44.2 26.327696 0.00822 0.045643  
2002-11-12 09:18:09 51°11.478 2°44.202 27.090259 0.00822 0.045643  
2002-11-12 09:18:13 51°11.478 2°44.203 27.090259 0.00822 0.045643  
2002-11-12 09:18:18 51°11.48 2°44.204 27.297075 0.00822 0.045643  
2002-11-12 09:18:23 51°11.481 2°44.205 26.241514 0.00822 0.045643  
2002-11-12 09:18:29 51°11.483 2°44.207 25.420411 0.00822 0.045643  
2002-11-12 09:18:34 51°11.484 2°44.209 26.2178 0.00822 0.045643  
2002-11-12 09:18:39 51°11.485 2°44.21 27.33445 0.00822 0.045643  
2002-11-12 09:18:44 51°11.487 2°44.212 27.33445 0.00822 0.045643  
2002-11-12 09:18:49 51°11.488 2°44.213 26.674704 0.00822 0.045643  
2002-11-12 09:18:54 51°11.489 2°44.214 26.252236 0.00822 0.045644  
2002-11-12 09:18:59 51°11.49 2°44.216 27.040319 0.00822 0.045644  
2002-11-12 09:19:03 51°11.491 2°44.216 26.42751 0.00822 0.045644  
2002-11-12 09:19:09 51°11.493 2°44.218 26.825091 0.00822 0.045644  
2002-11-12 09:19:13 51°11.493 2°44.219 26.825091 0.00822 0.045644  
2002-11-12 09:19:19 51°11.494 2°44.221 27.044099 0.00822 0.045644  
2002-11-12 09:19:23 51°11.495 2°44.222 26.557159 0.00822 0.045644  
2002-11-12 09:19:29 51°11.496 2°44.223 26.747595 0.00822 0.045645  
2002-11-12 09:19:34 51°11.496 2°44.225 26.77254 0.00822 0.045645  
2002-11-12 09:19:39 51°11.497 2°44.227 27.261109 0.00822 0.045645  
2002-11-12 09:19:43 51°11.498 2°44.23 27.261109 0.00822 0.045645  
2002-11-12 09:19:49 51°11.499 2°44.237 26.685437 0.00822 0.045645  
2002-11-12 09:19:54 51°11.499 2°44.243 27.078924 0.00822 0.045645  
2002-11-12 09:19:58 51°11.499 2°44.25 27.3995 0.00822 0.045645  
2002-11-12 09:20:04 51°11.497 2°44.259 27.112228 0.00822 0.045645  
2002-11-12 09:20:09 51°11.494 2°44.268 26.633193 0.00822 0.045646  
2002-11-12 09:20:13 51°11.491 2°44.275 26.633193 0.00822 0.045646  
2002-11-12 09:20:19 51°11.486 2°44.284 28.160195 0.00822 0.045645  
2002-11-12 09:20:23 51°11.481 2°44.29 26.394228 0.00822 0.045645  
2002-11-12 09:20:29 51°11.474 2°44.295 26.03038 0.00822 0.045645  
2002-11-12 09:20:34 51°11.467 2°44.299 27.052504 0.00822 0.045647  
2002-11-12 09:20:39 51°11.459 2°44.301 28.284404 0.00822 0.045646  
2002-11-12 09:20:43 51°11.453 2°44.302 28.284404 0.00822 0.045646  
2002-11-12 09:20:47 51°11.447 2°44.3 27.682319 0.00822 0.045647  
2002-11-12 09:20:54 51°11.437 2°44.295 26.577329 0.00822 0.045647  
2002-11-12 09:20:58 51°11.431 2°44.29 26.855198 0.00822 0.045647  
2002-11-12 09:21:04 51°11.422 2°44.279 27.098549 0.00822 0.045647  
2002-11-12 09:21:09 51°11.415 2°44.266 26.396191 0.00822 0.045648  
2002-11-12 09:21:14 51°11.409 2°44.252 26.396191 0.00822 0.045648  
2002-11-12 09:21:19 51°11.403 2°44.235 26.24719 0.00822 0.045648  
2002-11-12 09:21:23 51°11.399 2°44.219 26.225037 0.00822 0.045648  
2002-11-12 09:21:29 51°11.393 2°44.194 26.378379 0.00822 0.045648  
2002-11-12 09:21:34 51°11.388 2°44.171 26.254017 0.00822 0.045649  
2002-11-12 09:21:39 51°11.382 2°44.147 26.321432 0.00822 0.045649  
2002-11-12 09:21:43 51°11.377 2°44.127 26.321432 0.00822 0.045649  
2002-11-12 09:21:49 51°11.37 2°44.097 26.5273 0.00822 0.04565  
2002-11-12 09:21:54 51°11.364 2°44.071 26.409557 0.00822 0.04565  
2002-11-12 09:21:59 51°11.357 2°44.046 26.386267 0.00822 0.04565  
2002-11-12 09:22:03 51°11.352 2°44.025 27.321689 0.00822 0.045651  
2002-11-12 09:22:09 51°11.344 2°43.994 26.048128 0.00822 0.045651  
2002-11-12 09:22:14 51°11.337 2°43.967 26.048128 0.00822 0.045651  
2002-11-12 09:22:19 51°11.331 2°43.94 26.956507 0.00822 0.045652  
2002-11-12 09:22:23 51°11.325 2°43.919 26.353634 0.00822 0.045651  
2002-11-12 09:22:29 51°11.317 2°43.887 25.716276 0.00822 0.045652  
2002-11-12 09:22:33 51°11.311 2°43.865 26.929713 0.00822 0.045652  
2002-11-12 09:22:39 51°11.303 2°43.833 26.297781 0.00822 0.045652  
2002-11-12 09:22:44 51°11.296 2°43.806 26.297781 0.00822 0.045652  
2002-11-12 09:22:49 51°11.289 2°43.779 26.783591 0.00822 0.045652  
2002-11-12 09:22:54 51°11.283 2°43.752 26.723453 0.00822 0.045653  
2002-11-12 09:22:59 51°11.276 2°43.724 27.59606 0.00822 0.045653  
2002-11-12 09:23:03 51°11.271 2°43.703 27.026626 0.00822 0.045654  
2002-11-12 09:23:09 51°11.262 2°43.67 25.816847 0.00822 0.045654  
2002-11-12 09:23:14 51°11.255 2°43.643 25.816847 0.00822 0.045654